Carnival Victory — 3FFL8 — position and weather

sailwx.info

Track history (hours):
 
Tides and Currents Weather Stations Pressure Air Temp Water Temp Dewpoint Dewpoint Depression Visibility Wind Speed Wind Dir Waves Ship Positions

Carnival Victory

Operator: Carnival Cruise Lines

Last reported at 2014-Jul-28 07:00 UTC. Time now 2014-Jul-28 10:21 UTC.
Position N 19°18' W 075°30'.

Type: Ship. MMSI: 355263000.

Wind from 050 at 11 knots

Barometer 1014.0 mb
Air temperature 28.0 ° C
Visibility: greater than 5.4 NM
Dewpoint 25.0 ° C
Water temperature 31.0 ° C

Date/timePositionNaut miles runAvg speedWind from/ knotsBaromVisibWave heightAir tempDewpointWater temp
2014-Jul-28 07:00N 19°18' W 075°30'44313.9 050 / 111014.0 5.4 28.025.031.0
2014-Jul-26 23:16N 25°27' W 079°54'1116.1
2014-Jul-26 22:33N 25°38' W 079°59'1111.0
2014-Jul-26 21:33N 25°46' W 080°07'3 2.9
2014-Jul-26 20:31N 25°47' W 080°10'0 0.0
2014-Jul-26 19:28N 25°47' W 080°10'0 0.0
2014-Jul-26 18:33N 25°47' W 080°10'0 0.0
2014-Jul-26 17:33N 25°47' W 080°10'0 0.0
2014-Jul-26 16:23N 25°47' W 080°10'0 0.0
2014-Jul-26 15:32N 25°47' W 080°10'0 0.0
2014-Jul-26 14:25N 25°47' W 080°10'0 0.0
2014-Jul-26 13:31N 25°47' W 080°10'0 0.0
2014-Jul-26 12:28N 25°47' W 080°10'0 0.0
2014-Jul-26 11:33N 25°47' W 080°10'1 1.0
2014-Jul-26 10:33N 25°46' W 080°09'10 9.7
2014-Jul-26 09:33N 25°49' W 079°59'1312.9
2014-Jul-26 08:33N 25°57' W 079°47'1413.9
2014-Jul-26 07:33N 26°03' W 079°34'1514.6
2014-Jul-26 06:33N 26°11' W 079°20'131232.1
2014-Jul-26 06:00N 25°00' W 077°18'124276.2 140 / 251016.0 5.4 29.025.031.0
2014-Jul-26 05:33N 26°18' W 079°05'123 5.2
2014-Jul-25 06:00N 25°42' W 076°54'124 6.5 110 / 211016.0 5.4 28.024.031.0
2014-Jul-24 11:00N 24°00' W 075°36'108 2.2 140 / 81016.010.8 1.028.025.030.0
2014-Jul-22 11:00N 25°36' W 076°30'18436.8 090 / 211016.010.8 2.028.025.029.0
2014-Jul-22 06:00N 25°36' W 079°54'7119.2 100 / 191015.0 5.4 26.022.031.0
2014-Jul-22 02:17N 26°12' W 078°46'1216.2
2014-Jul-22 01:31N 26°16' W 078°59'1515.4
2014-Jul-22 00:34N 26°14' W 079°16'1817.5
2014-Jul-21 23:34N 26°04' W 079°32'1918.7
2014-Jul-21 22:34N 25°54' W 079°49'1616.3
2014-Jul-21 21:33N 25°46' W 080°05'5 4.6
2014-Jul-21 20:33N 25°47' W 080°10'0 0.1
2014-Jul-21 20:11N 25°47' W 080°10'0 0.0
2014-Jul-21 19:32N 25°47' W 080°10'0 0.0
2014-Jul-21 18:32N 25°47' W 080°10'0 0.0
2014-Jul-21 17:22N 25°47' W 080°10'0 0.0
2014-Jul-21 16:28N 25°47' W 080°10'0 0.0
2014-Jul-21 15:27N 25°47' W 080°10'0 0.0
2014-Jul-21 14:33N 25°47' W 080°10'0 0.0
2014-Jul-21 13:27N 25°47' W 080°10'0 0.0
2014-Jul-21 12:32N 25°47' W 080°10'0 0.0
2014-Jul-21 11:32N 25°47' W 080°10'1 1.2
2014-Jul-21 10:33N 25°46' W 080°09'9 8.8
2014-Jul-21 09:33N 25°44' W 079°60'1312.8
2014-Jul-21 08:33N 25°31' W 079°57'414 9.1
2014-Jul-19 11:00N 21°18' W 085°54'   110 / 201013.010.8 1.028.025.029.5
Track history (hours):
 
Tides and Currents Weather Stations Pressure Air Temp Water Temp Dewpoint Dewpoint Depression Visibility Wind Speed Wind Dir Waves Ship Positions

Carnival Victory

Operator: Carnival Cruise Lines

Last reported at 2014-Jul-28 07:00 UTC. Time now 2014-Jul-28 10:21 UTC.
Position N 19°18' W 075°30'.

Type: Ship. MMSI: 355263000.

Wind from 050 at 11 knots

Barometer 1014.0 mb
Air temperature 28.0 ° C
Visibility: greater than 5.4 NM
Dewpoint 25.0 ° C
Water temperature 31.0 ° C

Date/timePositionNaut miles runAvg speedWind from/ knotsBaromVisibWave heightAir tempDewpointWater temp
2014-Jul-28 07:00N 19°18' W 075°30'44313.9 050 / 111014.0 5.4 28.025.031.0
2014-Jul-26 23:16N 25°27' W 079°54'1116.1
2014-Jul-26 22:33N 25°38' W 079°59'1111.0
2014-Jul-26 21:33N 25°46' W 080°07'3 2.9
2014-Jul-26 20:31N 25°47' W 080°10'0 0.0
2014-Jul-26 19:28N 25°47' W 080°10'0 0.0
2014-Jul-26 18:33N 25°47' W 080°10'0 0.0
2014-Jul-26 17:33N 25°47' W 080°10'0 0.0
2014-Jul-26 16:23N 25°47' W 080°10'0 0.0
2014-Jul-26 15:32N 25°47' W 080°10'0 0.0
2014-Jul-26 14:25N 25°47' W 080°10'0 0.0
2014-Jul-26 13:31N 25°47' W 080°10'0 0.0
2014-Jul-26 12:28N 25°47' W 080°10'0 0.0
2014-Jul-26 11:33N 25°47' W 080°10'1 1.0
2014-Jul-26 10:33N 25°46' W 080°09'10 9.7
2014-Jul-26 09:33N 25°49' W 079°59'1312.9
2014-Jul-26 08:33N 25°57' W 079°47'1413.9
2014-Jul-26 07:33N 26°03' W 079°34'1514.6
2014-Jul-26 06:33N 26°11' W 079°20'131232.1
2014-Jul-26 06:00N 25°00' W 077°18'124276.2 140 / 251016.0 5.4 29.025.031.0
2014-Jul-26 05:33N 26°18' W 079°05'123 5.2
2014-Jul-25 06:00N 25°42' W 076°54'124 6.5 110 / 211016.0 5.4 28.024.031.0
2014-Jul-24 11:00N 24°00' W 075°36'108 2.2 140 / 81016.010.8 1.028.025.030.0
2014-Jul-22 11:00N 25°36' W 076°30'18436.8 090 / 211016.010.8 2.028.025.029.0
2014-Jul-22 06:00N 25°36' W 079°54'7119.2 100 / 191015.0 5.4 26.022.031.0
2014-Jul-22 02:17N 26°12' W 078°46'1216.2
2014-Jul-22 01:31N 26°16' W 078°59'1515.4
2014-Jul-22 00:34N 26°14' W 079°16'1817.5
2014-Jul-21 23:34N 26°04' W 079°32'1918.7
2014-Jul-21 22:34N 25°54' W 079°49'1616.3
2014-Jul-21 21:33N 25°46' W 080°05'5 4.6
2014-Jul-21 20:33N 25°47' W 080°10'0 0.1
2014-Jul-21 20:11N 25°47' W 080°10'0 0.0
2014-Jul-21 19:32N 25°47' W 080°10'0 0.0
2014-Jul-21 18:32N 25°47' W 080°10'0 0.0
2014-Jul-21 17:22N 25°47' W 080°10'0 0.0
2014-Jul-21 16:28N 25°47' W 080°10'0 0.0
2014-Jul-21 15:27N 25°47' W 080°10'0 0.0
2014-Jul-21 14:33N 25°47' W 080°10'0 0.0
2014-Jul-21 13:27N 25°47' W 080°10'0 0.0
2014-Jul-21 12:32N 25°47' W 080°10'0 0.0
2014-Jul-21 11:32N 25°47' W 080°10'1 1.2
2014-Jul-21 10:33N 25°46' W 080°09'9 8.8
2014-Jul-21 09:33N 25°44' W 079°60'1312.8
2014-Jul-21 08:33N 25°31' W 079°57'414 9.1
2014-Jul-19 11:00N 21°18' W 085°54'   110 / 201013.010.8 1.028.025.029.5

Dump ship's entire track history